{"data":{"norad_id":68192,"intl_designator":"2026-050AB","name":"STARLINK-37098","alt_names":[],"object_type":"PAYLOAD","status":"ACTIVE","operator":null,"country":"US","launch_date":"2026-03-14","launch_site_code":"AFETR","launch_vehicle":null,"mission":null,"orbit_class":"UNKNOWN","rcs_meters":null,"size_class":null,"mass_kg":null,"dimensions":null,"purposes":["comms"],"wikipedia_slug":null,"has_3d_model":false,"image_url":null,"decayed_at":null,"tle_current":{"epoch":"2026-09-19T21:11:49.085664Z","epoch_age_seconds":104415,"freshness":"FRESH","line1":"1 68192U 26050AB  26262.88320701  .00024456  00000+0  73240-3 0  9995","line2":"2 68192  53.1588  80.5753 0001692  89.7572 270.3625 15.34407914 30479","mean_motion":15.34407914,"eccentricity":0.0001692,"inclination_deg":53.1588,"raan_deg":80.5753,"arg_perigee_deg":89.7572,"mean_anomaly_deg":270.3625,"bstar":0.0007324,"rev_number":3047,"period_min":93.847274043713,"perigee_km":461.52225204368,"apogee_km":463.83718442113,"semimajor_km":6840.8167182324,"source":"CELESTRAK","updated_at":"2026-09-20T09:00:43.831100Z"}}}